OIIS  Semnan Airport

Add Bookmark

Semnan, Iran

Status
Operational
Latitude Longitude
35° 35' 27" N 53° 29' 42" E
35.591099 53.495098
Local (DST + 5) UTC (GMT + 4)
Sep 21, 2014 02:30 Sep 20, 2014 22:00
Sunrise-Sunset Local UTC
Begin Civil Twilight 06:16 01:46
Sunrise 06:42 02:12
Sunset 06:56 14:26
End Civil Twilight 07:21 14:51

Current Weather

METAR Observed VFR
OIIS 201600Z 00000KT CAVOK 29/08 Q1014 Sat, Sep 20, 2014 @ 16:00 UTC
(6 Hours ago)
Visual Flight Rules
Wind Visibility Clouds Conditions
Calm 10 km or more
  • Clear skies
  • No significant weather
Temperatures Readings Precipitation
Current Temp 29°C (84°F)
Dewpoint 8°C (46°F)
Humidity 27%
Altimeter 29.94"Hg
Sea Level Pressure 1014mb
Field Elevation 3658.14'
None Recorded

Additional weather within a 185.2km radius of OIIS

Map ICAO Location
OINZ 119.3km N (347°)
OINB 146.5km N (329°)
OING 167.4km N (029°)

24 Hour Weather History

Loading
-

24 Hour Weather Graphs

Loading
-

CheckWX.com is intended as a tool to help pilots better visualize weather data. It is not intended as a substitute for an official weather briefing obtained from a Flight Service Station. CheckWX.com does not meet the FAA requirements for an official pre-flight weather briefing. Therefore, it's important that pilots still call and obtain an official FSS pre-flight weather briefing.